Flag for France Weather past 2 weeks in Grenoble, France

Now
43 °F

Clear.


Feels Like: 39 °F
Forecast: 33 / 56 °F
Wind: 7 mph from North

Location: Grenoble / St. Geoirs

Current Time: Dec 21, 2014 at 4:55:48 PM

Latest Report: Dec 21, 2014 at 4:30 PM


Visibility: N/A

Pressure: 30.54 "Hg

Humidity: 76%

Dew point: 36 °F

Location of GrenobleLocation

Historic Weather in Grenoble — Graph

°F

Grenoble temperature yesterday

Maximum temperature yesterday: 54 °F (at 2:30 PM)
Minimum temperature yesterday: 39 °F (at 11:30 PM)
Average temperature yesterday: 47 °F

Past Weeks' High & Low Weather Summary

 TemperatureHumidityPressure
High57 °F (Dec 19, 1:30 PM)100% (Dec 8, 9:00 PM)30.57 "Hg (Dec 8, 9:00 PM)
Low30 °F (Dec 10, 2:00 AM)58% (Dec 13, 2:30 PM)29.92 "Hg (Dec 13, 2:00 AM)
Average42 °F85%30.17 "Hg
* Reported Dec 6 3:00 PM — Dec 21 3:30 PM, Grenoble, Weather by CustomWeather, © 2014

Note: Actual official high and low records may vary slightly from our data, if they occured in-between our weather recording intervals... More about our weather records

Advertising

Grenoble weather history for previous 24 hours

 ConditionsComfort  
Time TempWeatherWind HumidityBarometerVisibility
3:30 PM
Dec 21
46 °FPartly sunny.7 mph71%30.54 "HgN/A
3:00 PM45 °FPassing clouds.10 mph71%30.54 "HgN/A
2:30 PM45 °FPartly sunny.10 mph71%30.54 "HgN/A
2:00 PM46 °FScattered clouds.8 mph71%30.54 "HgN/A
1:30 PM45 °FScattered clouds.7 mph76%30.57 "HgN/A
1:00 PM45 °FPassing clouds.8 mph76%30.57 "HgN/A
12:30 PM43 °FPassing clouds.9 mph81%30.57 "HgN/A
12:00 PM41 °FScattered clouds.7 mph81%30.57 "HgN/A
11:30 AM39 °FPartly sunny.8 mph87%30.57 "HgN/A
11:00 AM39 °FPartly sunny.6 mph87%30.57 "HgN/A
10:30 AM39 °FPassing clouds.1 mph87%30.57 "HgN/A
10:00 AM39 °FPartly sunny.2 mph81%30.57 "HgN/A
9:30 AM37 °FPartly sunny.3 mph87%30.54 "HgN/A
9:00 AM37 °FPassing clouds.2 mph87%30.54 "HgN/A
8:30 AM36 °FPassing clouds.2 mph87%30.54 "HgN/A
8:00 AM37 °FClear.5 mph87%30.54 "HgN/A
7:30 AM37 °FClear.7 mph87%30.54 "HgN/A
7:00 AM37 °FClear.12 mph87%30.51 "HgN/A
6:30 AM39 °FClear.13 mph81%30.51 "HgN/A
6:00 AM37 °FPassing clouds.13 mph87%30.51 "HgN/A
5:30 AM37 °FPassing clouds.7 mph87%30.51 "HgN/A
5:00 AM37 °FPassing clouds.7 mph87%30.51 "HgN/A
4:30 AM37 °FPassing clouds.6 mph87%30.51 "HgN/A
4:00 AM39 °FClear.10 mph81%30.51 "HgN/A
3:30 AM39 °FClear.12 mph81%30.51 "HgN/A
3:00 AM37 °FPassing clouds.6 mph87%30.51 "HgN/A
2:30 AM37 °FPassing clouds.2 mph81%30.51 "HgN/A
2:00 AM37 °FClear.No wind81%30.51 "HgN/A
1:30 AM39 °FClear.6 mph81%30.51 "HgN/A
1:00 AM39 °FPassing clouds.10 mph81%30.51 "HgN/A
12:30 AM39 °FPassing clouds.14 mph87%30.51 "HgN/A
12:00 AM39 °FPassing clouds.14 mph81%30.51 "HgN/A
11:30 PM
Dec 20
39 °FOvercast.17 mph81%30.51 "HgN/A
11:00 PM41 °FOvercast.20 mph76%30.51 "HgN/A
10:30 PM41 °FOvercast.16 mph76%30.51 "HgN/A
9:30 PM41 °FOvercast.15 mph76%30.51 "HgN/A
9:00 PM41 °FOvercast.15 mph81%30.51 "HgN/A
8:30 PM43 °FPartly cloudy.16 mph81%30.48 "HgN/A
8:00 PM43 °FMostly cloudy.14 mph87%30.48 "HgN/A
7:30 PM45 °FPassing clouds.14 mph81%30.48 "HgN/A
7:00 PM45 °FPassing clouds.12 mph81%30.48 "HgN/A
6:00 PM45 °FOvercast.3 mph87%30.45 "HgN/A
5:30 PM46 °FMostly cloudy.3 mph82%30.42 "HgN/A
5:00 PM45 °FLow clouds.7 mph93%30.42 "HgN/A
4:30 PM46 °FLow clouds.10 mph93%30.42 "HgN/A
4:00 PM46 °FLow clouds.8 mph93%30.42 "HgN/A
Weather by CustomWeather, © 2014

See weather overviewHow to use our weather pages